SCP
0 0 0 0 0 0 0 0 0 0 0 0 0 0 0 0 0 0 1 1 1 0 0 0 0 0 0 0 0 0 0 0 0 0 0 0 0 0 0 0 0 0 0 0
0 0 0 0 0 0 0 0 0 0 0 0 0 0 0 0 0 0 1 0 0 0 0 0 0 0 0 0 0 0 0 0 0 0 0 0 0 0 0 0 0 0 0 0
0 0 0 0 0 0 0 0 0 0 0 0 0 0 0 0 0 0 1 0 0 0 0 0 0 0 0 0 0 0 0 0 0 0 0 0 0 0 0 0 0 0 0 0
0 0 0 0 0 0 0 0 0 0 0 0 0 0 0 0 0 0 1 0 0 0 0 0 0 0 0 1 1 1 1 0 0 0 0 0 0 0 0 0 0 0 0 0
0 0 0 0 0 0 0 0 0 0 0 0 0 0 0 0 0 0 0 0 0 0 0 0 0 0 0 0 1 1 1 1 0 0 0 0 0 0 0 0 0 0 0 0
0 0 0 0 0 0 0 0 0 0 0 0 0 0 0 0 0 0 0 0 0 0 0 0 0 0 0 0 0 1 1 1 1 0 0 0 0 0 0 0 0 0 0 0
0 0 0 0 0 0 0 0 0 0 0 0 0 0 0 0 0 0 0 0 0 0 0 0 0 0 0 0 0 0 1 1 1 0 0 0 0 0 0 0 0 0 0 0
0 0 0 0 0 0 0 0 0 0 0 0 0 0 0 0 0 0 0 0 0 0 0 0 0 0 0 0 0 0 0 1 1 0 0 0 0 0 0 0 0 0 0 0
0 0 0 0 0 0 0 0 0 0 0 0 0 0 0 0 0 0 0 0 0 0 0 0 0 0 0 0 0 0 0 0 0 1 0 0 0 0 0 0 0 0 0 0
0 0 0 0 0 0 0 0 0 0 0 0 0 0 0 0 0 0 0 0 0 0 0 0 0 0 0 0 0 0 0 0 0 0 0 0 0 0 0 0 0 0 0 0
0 0 0 0 0 0 0 0 0 0 0 0 0 0 0 0 0 0 0 0 0 0 0 0 0 0 0 0 0 0 0 0 0 0 0 0 0 0 0 0 0 0 0 0
0 0 0 0 0 0 0 0 0 0 0 0 0 0 0 0 0 0 0 0 0 0 0 0 0 0 0 0 0 0 0 0 0 0 0 0 0 0 0 0 0 0 0 0
0 0 0 0 0 0 0 0 0 0 0 0 0 0 0 0 0 0 0 0 0 0 0 0 0 0 0 0 0 0 0 0 0 0 0 0 0 0 0 0 0 0 0 0
0 0 0 0 0 0 0 0 0 0 0 0 0 0 0 0 0 0 0 0 0 0 0 0 0 0 0 0 0 0 0 0 0 0 0 0 0 0 0 0 0 0 0 0
0 0 0 0 0 0 0 0 0 0 0 0 0 0 0 0 0 0 0 0 0 0 0 0 0 0 0 0 0 0 0 0 0 0 0 0 0 0 0 0 0 0 0 0
0 0 0 0 0 0 0 0 0 0 0 0 0 0 0 0 0 0 0 0 0 0 0 0 0 0 0 0 0 0 0 0 0 0 0 0 0 0 0 0 0 0 0 0
0 0 0 0 0 0 0 0 0 0 0 0 0 0 0 0 0 0 0 0 0 0 0 0 0 0 0 0 0 0 0 0 0 0 0 0 0 0 0 0 0 0 0 0
0 0 0 0 0 0 0 0 0 0 0 0 0 0 0 0 0 0 0 0 0 0 0 0 0 0 0 0 0 0 0 0 0 0 0 0 0 0 0 0 0 0 0 0
0 0 0 0 0 0 0 0 0 0 0 0 0 0 0 0 0 0 0 0 0 0 0 0 0 0 0 0 0 0 0 0 0 0 0 0 0 0 0 0 0 0 0 0
0 0 0 0 0 0 0 0 0 0 0 0 0 0 0 0 0 0 0 0 0 0 0 0 0 0 0 0 0 0 0 0 0 0 0 0 0 0 0 0 0 0 0 0
0 0 0 0 0 0 0 0 0 0 0 0 0 0 0 0 0 0 0 0 0 0 0 0 0 0 0 0 0 0 0 0 0 0 0 0 0 0 0 0 0 0 0 0
0 0 0 0 0 0 0 0 0 0 0 0 0 0 0 0 0 0 0 0 0 0 0 0 0 0 0 0 0 0 0 0 0 0 0 0 0 0 0 0 0 0 0 0
0 0 0 0 0 0 0 0 0 0 0 0 0 0 0 0 0 0 0 0 0 0 0 0 0 0 0 0 0 0 0 0 0 0 0 0 0 0 0 0 0 0 0 0
0 0 0 0 0 0 0 0 0 0 0 0 0 0 0 0 0 0 0 0 0 0 0 0 0 0 0 0 0 0 0 0 0 0 0 0 0 0 0 0 0 0 0 0
0 0 0 0 0 0 0 0 0 0 0 0 0 0 0 0 0 0 0 0 0 0 0 0 0 0 0 0 0 0 0 0 0 0 0 0 0 0 0 0 0 0 0 0
0 0 0 0 0 0 0 0 0 0 0 0 0 0 0 0 0 0 0 0 0 0 0 0 0 0 0 0 0 0 0 0 0 0 0 0 0 0 0 0 0 0 0 0
Wind_Speed
4 4 3 3 2 1 1 1 1 2 2 3 5 8 8 5 5 6 5 5 4 4 3 2 2 2 3 3 3 4 4 3 2 2 2 2 2 2 2 2 2 2 2 2
4 5 3 2 3 3 2 1 1 1 2 3 5 8 7 5 5 5 5 5 5 4 3 2 2 2 3 3 4 4 4 3 4 3 3 2 2 2 2 1 2 2 3 3
4 3 1 2 4 3 1 1 1 2 3 1 5 5 2 1 3 4 5 5 4 4 4 3 2 3 3 3 4 3 4 4 4 4 2 1 1 1 2 2 2 2 3 3
4 2 1 2 2 1 0 0 1 2 2 1 3 4 3 2 3 4 4 4 5 4 4 4 4 4 4 4 3 3 4 4 4 4 4 4 3 3 3 2 2 2 2 3
3 1 2 1 1 1 1 1 0 1 1 2 1 4 4 1 4 3 4 4 4 4 4 4 4 4 4 3 3 3 3 4 4 4 5 5 4 3 2 2 2 2 2 2
3 1 1 1 1 0 1 2 2 1 2 2 1 4 5 2 3 3 3 3 3 4 4 4 4 3 3 3 3 3 3 4 4 4 5 5 5 4 3 3 3 2 2 2
1 1 1 0 1 2 1 1 1 1 1 2 0 4 7 4 3 4 5 4 4 4 4 4 4 4 3 3 3 3 4 4 4 4 4 4 5 4 4 4 3 3 2 2
1 0 1 1 1 0 1 1 1 2 2 2 2 6 6 2 3 4 5 5 5 4 4 4 4 4 4 4 4 4 5 4 4 4 4 4 4 3 3 3 3 3 2 2
2 1 1 1 1 1 2 1 2 2 1 3 5 6 8 3 4 4 4 4 4 4 4 4 4 4 4 4 4 5 5 4 4 3 3 3 3 3 3 3 3 2 2 2
2 2 0 1 1 1 1 2 2 2 2 4 5 6 5 4 4 3 4 4 5 4 4 4 4 4 4 4 3 4 4 4 3 3 3 2 2 2 2 2 3 3 3 2
2 2 1 1 3 3 3 3 2 2 2 3 4 5 3 4 4 4 5 5 5 5 5 4 4 4 4 3 3 3 4 4 3 3 3 2 2 2 2 2 3 3 2 2
2 1 2 2 0 2 3 3 5 3 3 4 4 8 1 4 4 5 6 6 6 6 6 5 5 4 3 4 3 3 3 3 3 3 3 2 2 2 2 2 3 2 2 2
3 3 1 1 3 2 3 4 4 1 2 4 5 8 1 3 5 6 7 7 6 6 6 5 4 4 4 4 4 4 4 3 3 3 3 2 2 2 2 2 2 2 2 2
2 3 5 5 2 3 5 6 7 6 5 6 11 13 11 9 9 9 8 8 7 7 6 6 6 5 5 4 4 4 4 3 3 3 3 3 3 2 2 2 2 2 2 2
3 4 5 6 5 4 7 8 10 12 11 10 11 13 17 14 11 10 9 8 8 8 7 7 7 6 5 5 4 4 4 4 3 4 4 4 3 2 2 2 2 2 2 2
3 3 2 5 4 6 10 13 13 14 13 15 16 19 17 13 9 10 10 9 9 9 8 8 7 6 6 5 5 5 4 4 4 4 4 3 3 2 2 2 2 2 2 2
4 4 3 4 2 4 12 13 15 12 13 13 16 16 9 9 10 10 9 8 10 10 10 9 8 7 6 6 5 5 4 4 4 4 4 3 3 3 3 2 2 2 2 2
5 4 2 2 1 10 7 3 10 12 14 15 15 14 12 11 10 9 9 10 11 10 9 8 7 7 5 4 4 4 3 4 4 4 4 4 4 4 3 3 3 3 2 3
4 5 3 3 5 12 9 5 7 9 11 12 15 16 14 7 7 8 8 9 10 9 8 7 6 5 4 3 3 3 3 4 4 5 5 4 4 4 3 4 4 3 3 3
2 2 4 4 5 9 5 3 3 4 9 6 11 13 8 3 4 5 2 4 6 6 6 5 4 3 4 3 3 4 4 4 5 5 4 4 4 4 4 4 4 3 3 3
5 4 7 8 9 12 5 4 6 5 6 2 7 8 7 8 7 4 3 4 4 5 4 4 4 4 4 3 3 4 4 5 4 3 3 3 4 4 4 3 3 3 3 3
11 10 10 8 9 13 6 9 11 7 1 2 4 6 7 8 8 8 7 6 5 5 4 3 3 4 3 3 4 5 5 4 2 3 3 4 3 3 3 3 3 2 3 3
12 11 9 13 11 4 9 9 6 2 3 4 4 5 6 7 8 8 8 7 6 5 4 3 3 4 3 3 4 5 4 2 2 3 3 3 2 3 3 3 3 3 3 3
8 4 5 8 13 10 9 9 8 7 8 7 6 6 5 7 9 9 8 6 6 5 4 3 3 4 4 3 3 5 2 2 3 4 3 3 3 3 3 3 3 3 3 3
8 8 7 10 10 8 9 11 12 10 9 9 8 7 7 8 9 9 7 7 6 4 4 3 4 5 5 3 3 3 2 3 4 4 3 3 3 3 3 3 3 4 4 4
8 10 11 11 8 7 6 3 5 6 7 8 7 6 5 6 8 8 7 6 5 5 4 4 4 5 4 3 3 2 2 3 4 4 4 3 3 2 3 3 3 4 5 6
Wind_Direction
33 67 59 44 25 48 121 182 266 308 356 297 269 278 285 280 256 256 255 256 254 257 264 251 245 236 239 241 232 227 232 233 227 223 232 241 249 252 250 255 262 260 250 231
101 65 52 77 97 115 123 147 309 317 354 309 301 288 281 266 258 260 258 251 252 264 265 262 256 236 234 240 236 231 229 229 229 233 236 248 262 270 275 265 257 257 250 238
90 71 53 115 98 112 83 248 303 320 322 267 302 281 241 226 248 254 250 251 254 258 263 268 267 253 242 242 239 234 228 227 230 227 217 216 234 255 261 259 260 261 261 251
77 47 111 97 68 3 109 358 276 297 303 325 334 295 277 286 273 248 245 243 251 255 259 266 266 264 253 253 241 231 229 229 226 217 213 219 230 243 259 265 259 266 259 258
91 57 55 63 14 319 81 82 204 269 268 281 294 266 277 285 267 254 246 250 261 264 264 264 262 266 265 257 249 238 230 231 224 219 220 223 233 242 246 255 260 271 269 263
86 77 12 17 27 78 144 168 146 164 222 260 287 261 274 242 255 280 275 265 277 287 282 277 274 272 269 259 250 241 233 236 226 221 222 224 228 234 241 253 262 268 271 268
86 100 52 341 136 120 210 227 268 271 272 259 104 256 260 275 260 271 283 288 291 289 281 274 271 264 267 263 253 241 233 235 225 223 224 227 229 231 237 248 253 260 263 269
160 168 58 354 317 169 144 293 260 279 290 305 218 250 265 290 280 271 274 281 290 287 279 272 268 259 261 263 253 238 232 233 225 224 230 231 233 234 238 248 252 253 258 263
179 166 76 26 337 292 147 133 10 108 75 278 264 274 282 236 252 255 264 272 276 278 280 273 272 265 262 258 250 239 232 231 227 227 230 234 235 238 245 253 252 252 259 268
174 165 151 346 184 70 351 144 161 179 234 272 278 262 257 246 252 259 264 268 275 281 280 276 269 265 265 261 255 241 231 230 229 227 228 235 241 248 259 262 257 254 261 264
190 168 146 177 207 197 156 164 165 148 256 248 276 267 222 235 249 267 274 275 280 282 283 281 277 271 271 267 253 239 235 232 226 222 224 230 238 244 250 256 260 258 255 255
174 173 214 218 129 312 238 211 188 206 217 232 261 270 200 235 256 267 279 285 281 282 282 280 278 274 268 262 252 242 235 230 227 221 220 225 230 237 247 261 268 266 267 266
159 165 167 207 195 198 227 217 208 184 162 202 231 262 144 250 270 267 271 279 280 283 284 280 272 266 259 254 248 241 234 228 222 213 216 222 226 232 246 260 271 270 271 273
169 198 221 244 256 175 211 210 200 193 210 224 236 261 271 273 279 282 281 282 285 285 282 278 273 270 261 252 244 236 234 225 212 209 213 222 229 237 246 254 262 262 262 264
188 223 239 262 267 241 238 227 209 214 224 234 251 256 268 275 277 280 282 282 280 279 275 271 267 266 260 249 239 233 232 218 205 206 215 224 230 235 241 247 252 256 260 263
190 212 233 268 247 250 258 243 225 229 236 245 261 269 267 276 276 271 270 269 272 273 271 268 264 261 255 246 237 231 229 215 203 209 217 220 222 226 231 239 245 247 248 252
175 172 204 260 294 292 261 231 214 220 222 222 238 251 266 270 267 269 271 266 265 267 266 264 260 256 247 240 232 230 224 208 204 212 216 215 216 221 227 234 241 246 250 252
166 162 191 259 265 249 256 180 207 225 238 228 244 258 260 266 282 279 266 258 260 261 261 262 258 256 249 236 227 223 211 205 208 215 218 215 214 220 221 226 238 247 250 249
188 165 164 195 249 272 276 212 195 214 255 227 236 254 262 273 292 272 249 238 247 258 262 264 260 254 249 231 215 202 207 208 213 220 222 219 216 219 220 229 238 244 247 251
145 174 177 191 231 250 256 163 175 193 264 230 221 243 252 222 259 272 233 239 255 266 267 264 260 247 241 230 198 198 212 217 226 228 224 221 216 219 227 232 239 245 246 254
172 186 202 212 237 260 250 137 148 199 257 239 212 232 221 218 246 295 298 278 270 277 274 260 247 239 238 214 193 211 223 234 236 226 217 217 218 223 229 232 234 237 242 251
181 181 196 193 220 249 175 157 197 228 292 226 227 231 232 244 269 281 284 284 282 281 278 260 250 251 241 205 202 224 237 241 220 208 215 219 222 223 219 220 227 231 234 243
207 201 193 199 220 255 177 207 232 281 257 251 246 249 244 256 268 276 279 281 282 277 274 265 255 258 251 218 213 231 242 217 203 207 218 221 216 220 218 219 222 225 228 239
224 219 216 241 253 249 233 245 256 250 253 261 260 260 248 256 267 271 274 275 276 276 270 263 252 255 257 232 227 239 239 200 196 212 221 219 218 223 221 229 227 227 228 233
213 181 214 246 261 274 257 238 245 248 253 262 263 257 254 259 268 269 271 269 266 268 268 252 248 256 260 251 239 235 218 200 207 214 218 222 225 225 227 231 234 236 240 235
200 193 199 232 228 223 248 251 235 236 247 254 260 268 260 248 263 270 268 269 268 267 266 259 254 255 259 251 245 233 212 204 209 215 216 217 220 222 228 235 250 248 251 262